{"data":{"norad_id":62649,"intl_designator":"2025-009AS","name":"AE1C","alt_names":[],"object_type":"PAYLOAD","status":"ACTIVE","operator":null,"country":"JPN","launch_date":"2025-01-14","launch_site_code":"AFWTR","launch_vehicle":null,"mission":null,"orbit_class":"UNKNOWN","rcs_meters":null,"size_class":null,"mass_kg":null,"dimensions":null,"purposes":[],"wikipedia_slug":null,"has_3d_model":false,"image_url":null,"decayed_at":null,"tle_current":{"epoch":"2026-09-22T21:31:05.585952Z","epoch_age_seconds":110545,"freshness":"FRESH","line1":"1 62649U 25009AS  26265.89659243  .00031448  00000+0  53432-3 0  9999","line2":"2 62649  97.3990 355.8503 0000396  60.0011 300.1281 15.51402789 94405","mean_motion":15.51402789,"eccentricity":3.96e-5,"inclination_deg":97.399,"raan_deg":355.8503,"arg_perigee_deg":60.0011,"mean_anomaly_deg":300.1281,"bstar":0.00053432,"rev_number":9440,"period_min":92.819222075022,"perigee_km":412.36056294473,"apogee_km":412.89839164973,"semimajor_km":6790.7664772972,"source":"CELESTRAK","updated_at":"2026-09-23T09:00:21.538757Z"}}}